SES-5 (38652 NORAD) Tracking and Keplerian Element Data

This shows tracking and keplerian element data for the satellite.

Feedback or suggestion? Click here.




ElementValue
Catalog38652
NameSES-5
Epoch Orbit3378
Epoch Day270.15396508
Epoch Year2021
RAAN293.0053
Inclination0.0602
Eccentricity0.0001862
Argument of Perigee255.7463
Mean Anonmoly237.8327
Mean Motion1.00271339
Decay Rate3.3E-07
L11 38652U 12036A 21270.15396508 .00000033 00000-0 00000+0 0 9990
L22 38652 0.0602 293.0053 0001862 255.7463 237.8327 1.00271339 33784

Live tracking and technical data element details for SES-5 (NORAD 38652). SES-5 can be tracked NOW for your location showing map with azimuth and elevation plus other details from your city location.

Track the satellite on the map from your city or location and see movement details for azimuth, elevation, latitude, longitude, range, height, and movement on the map or in text.







IsCatalogInMostPopularTable: catalog: 38652, numindb: 529
Update: records affected: 1



GetName: 38652 SES-5

Hit Count: updated at: Tue, 28 Sep 2021 16:44:24 GMT